Погода в Хотькове

Россия / Орловская область     52°54′37″N   35°22′45″E
темп.,
°C
ветер,
м/с
пор.,
м/с
влажн.,
%
обл.,
%
осадки,
мм/ч
давл.,
гПа
погр.,
м
28 ноября, вс
вс2800:00+5ю6149688 0.0 1002410
03:00+6юз71186100 0.1 1003618
06:00+2юз37945 0.0 1004184
09:00+1юз39945 0.0 1006222
12:00+4юз477790 0.0 1007299
15:00+4ююз247792 0.0 1008144
18:00+2ююв3484100 0.0 100850
21:00+3юв41197100 0.0 1007231
29 ноября, пн
пн2900:00+3юв51397100 0.0 1007303
03:00+3юв51296100 0.0 1005275
06:00+3юв4997100 0.0 1003192
09:00+4вюв4898100 0.1 1001185
12:00+5вюв4899100 0.6 998239
15:00+5вюв3699100 2.4 996176
18:00+6юв41099100 0.0 992280
21:00+6в4799100 2.4 986155
30 ноября, вт
вт3000:00+6в5999100 6.1 979238
03:00+6зюз3699100 11.2 976236
06:00+5з51098100 1.4 975386
09:000зюз132195100 3.9 982936
12:00+1зюз121993100 3.4 9861100
15:00+1юз101787100 3.5 9871246
18:000юз91589100 0.2 9881101
21:00−2юз9149296 0.3 989942
1 декабря, ср
ср100:00−2зюз10158799 0.2 990980
03:00−2з91494100 0.9 992990
06:00−2з81384100 0.6 9931060
09:00−3з81286100 0.7 9951020
12:00−3з7118490 0.1 9971013
15:00−2з6107986 0.1 997988
18:00−4з410905 0.0 999407
21:00−5з4109510 0.0 1000368
2 декабря, чт
чт200:00−6зюз379514 0.0 1002189
03:00−5ююз4993100 0.0 1002266
06:00−2ю61492100 0.0 1000478
09:000ююз81598100 1.3 998757
12:00−1ююз81696100 1.3 1001683
15:00+1юз71598100 2.0 1001610
18:00+1юз7149591 0.1 1002489
21:00+1юз6149289 0.1 1003439